Regional Weather Roundup
Issued by NWS Northern Indiana

Home | Current Version | Previous Version | Graphics & Text | Print | Product List | Glossary On
Versions: 1 2 3 4 5 6 7 8 9 10 11 12 13 14 15 16 17 18 19 20 21 22 23 24 25 26 27 28 29 30 31 32 33 34 35 36 37 38 39 40 41 42 43 44 45 46 47 48 49 50
000
ASUS43 KIWX 091610
RWRIWX

KIWX WEATHER ROUNDUP
NATIONAL WEATHER SERVICE NORTHERN INDIANA
1100 AM EST TUE FEB 09 2016

NOTE: "FAIR" INDICATES FEW OR NO CLOUDS BELOW 12,000 FEET WITH NO
SIGNIFICANT WEATHER AND/OR OBSTRUCTIONS TO VISIBILITY.

* THESE STATIONS ARE NOT UNDER NWS QUALITY CONTROL. THEY ALSO MAY NOT
  REPORT WEATHER SUCH AS PRECIPITATION OR FOG.

INZ001>027-091700-
NORTHERN INDIANA

CITY           SKY/WX    TMP DP  RH WIND       PRES   REMARKS
GARY*          LGT SNOW  21  12  68 NW14      29.82R WCI   8
VALPARAISO     LGT SNOW  20  15  81 NW14G23   29.77R WCI   7
MICHIGAN CITY* LGT SNOW  23  21  93 NW13G20   29.78R WCI  11
LAPORTE*       LGT SNOW  26  24  92 NW15G24   29.75R WCI  13
KNOX*          CLOUDY    23  19  86 NW17G25   29.76R WCI   9
SOUTH BEND     LGT SNOW  25  20  81 NW17      29.73R WCI  12
ELKHART*       CLOUDY    27  21  80 NW9G20    29.72R WCI  17
GOSHEN         FLURRIES  28  22  78 NW15      29.69R WCI  16
MONTICELLO*    FLURRIES  21  13  72 W13       29.78S WCI   8
LOGANSPORT*    CLOUDY    21  14  73 W14       29.78R WCI   8
ROCHESTER*     LGT SNOW  25  18  74 W10G16    29.74R WCI  15
WARSAW*        CLOUDY    27  23  86 W10       29.70R WCI  17
ANGOLA*        CLOUDY    27  21  80 NW13      29.64S WCI  16
FORT WAYNE     LGT SNOW  27  20  75 W14G22    29.70R WCI  16
HUNTINGTON*    LGT SNOW  22  15  75 W12G18    29.71R WCI  11
PERU/GRISSOM   LGT SNOW  21  17  85 W15       29.74R FOG     WCI   8
MARION*        CLOUDY    21  13  69 W18       29.74S HAZE    WCI   7

$$
INZ028>050-091700-
CENTRAL INDIANA

CITY           SKY/WX    TMP DP  RH WIND       PRES   REMARKS
LAFAYETTE      LGT SNOW  21  16  81 W13       29.81R WCI   9
KOKOMO*        CLOUDY    21  16  79 W20       29.75R WCI   6
MUNCIE*        CLOUDY    23  17  78 W17       29.73S WCI   9
INDIANAPOLIS   LGT SNOW  21  14  74 W14       29.79R WCI   8

$$
MIZ043>046-050>051-056>058-064>065-071>073-077>080-091700-
SOUTHWEST LOWER MICHIGAN

CITY           SKY/WX    TMP DP  RH WIND       PRES   REMARKS
BATTLE CREEK   CLOUDY    26  18  71 NW16G25   29.66R WCI  14
BENTON HARBOR  LGT SNOW  26  19  74 NW12G22   29.74R WCI  16
COLDWATER*     CLOUDY    28  22  80 NW13      29.65R WCI  17
HILLSDALE*     CLOUDY    26  23  88 NW15      29.61S WCI  14
HOLLAND        FLURRIES  27  20  75 NW13G20   29.71S WCI  16
GRAND RAPIDS   FLURRIES  26  19  74 NW16      29.67R WCI  14
KALAMAZOO      CLOUDY    27  19  72 NW20G25   29.67R WCI  13
STURGIS*       CLOUDY    27  21  79 NW14      29.66R WCI  15
THREE RIVERS*  CLOUDY    28  22  78 NW12G20   29.68R WCI  18

$$
OHZ001>008-015>018-024>025-091700-
NORTHWEST OHIO

CITY           SKY/WX    TMP DP  RH WIND       PRES   REMARKS
DEFIANCE       CLOUDY    31  25  78 W10       29.65R WCI  22
FINDLAY        LGT SNOW  27  22  81 SW20G26   29.64R WCI  13
TOLEDO EXPRESS SNOW      30  28  92 W13       29.61S VSB 1/2 WCI  20
TOLEDO METCALF LGT SNOW  30  27  88 W12       29.62S VSB 1   WCI  20
LIMA           LGT SNOW  25  22  88 W17       29.66R FOG     WCI  12

$$
AND FOR LAKE MICHIGAN COASTAL AND OPEN LAKE BUOY OBSERVATIONS

STATION/POSITION TEMP    WIND        PRES    VSBY  WAVE
                 AIR SEA DIR/SP/G                  HT/PER
                 (F)     (DEG/KT/KT) (MB)    (MI)  (FT/S)
CALUMET HARBOR    17     280/  8/ 15 1008.9R
MICHIGAN CITY     24     290/ 22/ 24   N/A
BURNS HARBOR      21     320/ 19/ 25 1009.1R
SAINT JOSEPH      26     310/ 18/ 23 1008.1R

$$
&&



USA.gov is the U.S. government's official web portal to all federal, state and local government web resources and services.